San Diego, CA

12:15 AM PDT on June 19, 2018 (GMT -0700)
San Diego International-Lindbergh

Weather History for KSAN - October, 2017

Change the Weather History Date:

Wednesday, October 11, 2017

  Actual Average Record
Temperature  
Mean Temperature 69 °F 67 °F  
Max Temperature 75 °F 73 °F 94 °F (2015)
Min Temperature 62 °F 62 °F 46 °F (1879)
Degree Days  
Heating Degree Days 0 0  
Month to date heating degree days 0 0  
Since 1 July heating degree days 0 2  
Cooling Degree Days 4 3  
Month to date cooling degree days 55 36  
Year to date cooling degree days 999 672  
Growing Degree Days 18 (Base 50)    
Moisture  
Dew Point 60 °F    
Average Humidity 77    
Maximum Humidity 93    
Minimum Humidity 61    
Precipitation  
Precipitation 0.00 in 0.01 in 0.51 in (1987)
Month to date precipitation 0.00 0.14  
Year to date precipitation 7.83 7.37  
Sea Level Pressure  
Sea Level Pressure 29.90 in    
Wind  
Wind Speed 7 mph (NNW)    
Max Wind Speed 15 mph    
Max Gust Speed 19 mph    
Visibility 10 miles    
Events      
T = Trace of Precipitation, MM = Missing Value Source: NWS Daily Summary

Daily Weather History Graph

Daily Weather History Graph

Search for Another Location

Airport or City:

Astronomy

Oct. 11, 2017 Rise Set
Actual Time 6:50 AM PDT 6:20 PM PDT
Civil Twilight 6:25 AM PDT 6:44 PM PDT
Nautical Twilight 5:56 AM PDT 7:13 PM PDT
Astronomical Twilight 5:28 AM PDT 7:41 PM PDT
Moon 11:40 PM PDT (10/11) 12:58 PM PDT (10/11)
Length of Visible Light 12h 19m
Length of Day
11h 30m
Waning Gibbous, 58% of the Moon is Illuminated
Oct 11
Waning Gibbous
Oct 12
Last Quarter
Oct 19
New
Oct 27
First Quarter
Nov 3
Full

Hourly Weather History & Observations

Time (PDT) Temp. Dew Point Humidity Pressure Visibility Wind Dir Wind Speed Gust Speed Precip Events Conditions
12:51 AM 64.0 °F 60.1 °F 87% 29.88 in 9.0 mi North 4.6 mph - N/A   Partly Cloudy
1:51 AM 63.0 °F 59.0 °F 87% 29.88 in 9.0 mi North 3.5 mph - N/A   Scattered Clouds
2:51 AM 63.0 °F 61.0 °F 93% 29.88 in 8.0 mi North 3.5 mph - N/A   Scattered Clouds
3:51 AM 63.0 °F 60.1 °F 90% 29.87 in 8.0 mi North 3.5 mph - N/A   Mostly Cloudy
4:07 AM 62.1 °F 59.0 °F 90% 29.87 in 8.0 mi North 3.5 mph - N/A   Mostly Cloudy
4:16 AM 62.1 °F 59.0 °F 90% 29.87 in 8.0 mi Calm Calm - N/A   Mostly Cloudy
4:51 AM 62.1 °F 59.0 °F 90% 29.88 in 8.0 mi Calm Calm - N/A   Mostly Cloudy
5:49 AM 62.6 °F 57.2 °F 82% 29.88 in 8.0 mi Calm Calm - N/A   Mostly Cloudy
5:51 AM 63.0 °F 57.9 °F 84% 29.88 in 8.0 mi North 3.5 mph - N/A   Mostly Cloudy
6:51 AM 64.0 °F 60.1 °F 87% 29.89 in 10.0 mi ENE 3.5 mph - N/A   Mostly Cloudy
7:11 AM 64.0 °F 59.0 °F 84% 29.89 in 10.0 mi North 3.5 mph - N/A   Mostly Cloudy
7:36 AM 64.9 °F 60.1 °F 84% 29.90 in 10.0 mi NE 6.9 mph - N/A   Mostly Cloudy
7:51 AM 64.9 °F 60.1 °F 84% 29.90 in 10.0 mi NE 4.6 mph - N/A   Scattered Clouds
8:40 AM 66.9 °F 60.1 °F 79% 29.92 in 10.0 mi NNW 5.8 mph - N/A   Mostly Cloudy
8:51 AM 66.9 °F 60.1 °F 79% 29.92 in 10.0 mi North 5.8 mph - N/A   Mostly Cloudy
9:05 AM 68.0 °F 60.1 °F 76% 29.92 in 10.0 mi NNW 4.6 mph - N/A   Scattered Clouds
9:13 AM 68.0 °F 61.0 °F 78% 29.93 in 10.0 mi NW 5.8 mph - N/A   Mostly Cloudy
9:33 AM 68.0 °F 61.0 °F 78% 29.93 in 10.0 mi WNW 8.1 mph - N/A   Mostly Cloudy
9:51 AM 70.0 °F 60.1 °F 71% 29.93 in 10.0 mi WNW 5.8 mph - N/A   Mostly Cloudy
10:04 AM 71.1 °F 60.1 °F 68% 29.93 in 10.0 mi NW 6.9 mph - N/A   Mostly Cloudy
10:51 AM 72.0 °F 61.0 °F 68% 29.93 in 10.0 mi WNW 5.8 mph - N/A   Scattered Clouds
11:51 AM 73.0 °F 61.0 °F 66% 29.93 in 10.0 mi WNW 12.7 mph - N/A   Scattered Clouds
12:51 PM 73.9 °F 60.1 °F 62% 29.91 in 10.0 mi West 11.5 mph - N/A   Mostly Cloudy
1:51 PM 73.0 °F 59.0 °F 61% 29.90 in 10.0 mi WNW 11.5 mph - N/A   Scattered Clouds
2:51 PM 72.0 °F 60.1 °F 66% 29.89 in 10.0 mi WNW 12.7 mph - N/A   Partly Cloudy
3:51 PM 71.1 °F 59.0 °F 66% 29.89 in 10.0 mi NW 10.4 mph - N/A   Partly Cloudy
4:51 PM 70.0 °F 59.0 °F 68% 29.89 in 10.0 mi WNW 11.5 mph - N/A   Partly Cloudy
5:51 PM 68.0 °F 59.0 °F 73% 29.89 in 10.0 mi NW 10.4 mph - N/A   Scattered Clouds
6:51 PM 66.9 °F 59.0 °F 76% 29.89 in 10.0 mi WNW 8.1 mph - N/A   Scattered Clouds
7:51 PM 66.9 °F 59.0 °F 76% 29.90 in 10.0 mi NW 5.8 mph - N/A   Scattered Clouds
8:25 PM 66.9 °F 59.0 °F 76% 29.91 in 10.0 mi WNW 4.6 mph - N/A   Mostly Cloudy
8:51 PM 66.0 °F 59.0 °F 78% 29.91 in 10.0 mi WNW 4.6 mph - N/A   Mostly Cloudy
9:51 PM 66.9 °F 59.0 °F 76% 29.92 in 10.0 mi West 3.5 mph - N/A   Overcast
10:51 PM 66.9 °F 59.0 °F 76% 29.92 in 10.0 mi North 4.6 mph - N/A   Overcast
11:51 PM 66.9 °F 59.0 °F 76% 29.92 in 10.0 mi NE 3.5 mph - N/A   Overcast